Location: Newark
(45.4422°N, 16.2769°E)
Time: 21:47:16
(UTC+00:00)

Vanguard 2 - Pass Details

Date: 15 December 2019
Orbit: 553 x 2938 km, 32.9° (Epoch: 28 January)

Event Time Altitude Azimuth Distance (km) Brightness Sun altitude
Rises 23:01:18 0° 232° (SW) 5,124 - -67.7°
Reaches altitude 10° 23:04:28 10° 225° (SW) 4,423 - -67.7°
Maximum altitude 23:16:32 44° 159° (SSE) 3,278 - -67.2°
Exits shadow 23:29:38 17° 100° (E) 5,192 11.7 -66.4°
Drops below altitude 10° 23:32:29 10° 96° (E) 5,770 12.0 -66.2°
Sets 23:37:18 0° 91° (E) 6,770 12.5 -65.9°
